Location: Laterina
(43.5167°N, 11.7167°E)
Time: 15:45:07
(UTC+00:00)

Cosmos 1627 Rocket - Pass Details

Date: 24 September 2020
Orbit: 951 x 1003 km, 82.9° (Epoch: 20 October)

Event Time Altitude Azimuth Distance (km) Brightness Sun altitude
Rises 18:48:34 0° 354° (N) 3,738 7.9 -19.1°
Reaches altitude 10° 18:51:08 10° 357° (N) 2,786 7.1 -19.6°
Maximum altitude 18:57:31 68° 80° (E) 1,079 4.5 -20.6°
Enters shadow 19:01:24 25° 157° (SSE) 1,900 5.6 -21.3°
